{"data":{"norad_id":48310,"intl_designator":"2021-036AL","name":"STARLINK-2536","alt_names":[],"object_type":"PAYLOAD","status":"ACTIVE","operator":null,"country":"US","launch_date":"2021-04-29","launch_site_code":"AFETR","launch_vehicle":null,"mission":null,"orbit_class":"UNKNOWN","rcs_meters":null,"size_class":null,"mass_kg":null,"dimensions":null,"purposes":["comms"],"wikipedia_slug":null,"has_3d_model":false,"image_url":null,"decayed_at":null,"tle_current":{"epoch":"2026-05-25T02:39:14.246784Z","epoch_age_seconds":65574,"freshness":"FRESH","line1":"1 48310U 21036AL  26145.11058156 -.00000151  00000+0  69117-5 0  9999","line2":"2 48310  53.1619  95.9900 0001674  88.6235 271.4959 15.31701935279881","mean_motion":15.31701935,"eccentricity":0.0001674,"inclination_deg":53.1619,"raan_deg":95.99,"arg_perigee_deg":88.6235,"mean_anomaly_deg":271.4959,"bstar":6.9117e-6,"rev_number":27988,"period_min":94.013069194171,"perigee_km":469.58772605399,"apogee_km":471.88072814083,"semimajor_km":6848.8712270974,"source":"CELESTRAK","updated_at":"2026-05-25T13:38:16.679346Z"}}}